Torna al catalogo

TIANLIAN 1-04

AttivoComunicazioniGEO
NORAD 41869·PAYLOAD·🇨🇳 China

Lanciato Nov 22, 2016 da Xichang Satellite Launch Center

Loading…

TLE

AggiornatoSource: Space-Track

Epoca: Sep 14, 2026, 15:44 UTC

1 41869U 16072A   26257.65621795  .00000023  00000-0  00000-0 0  9992
2 41869   1.0923  82.0828 0047004  96.1294 228.4409  1.00270772 36193

Traccia TIANLIAN 1-04 in tempo reale con AllMySat

Download on the App Store